Location: Kerb�bon
(47.7970°N, 3.3487°W)
Time: 12:52:22
(UTC+00:00)

Cosmos 2278 Rocket - Pass Details

Date: 12 May 2021
Orbit: 841 x 845 km, 71.0° (Epoch: 18 June)

Event Time Altitude Azimuth Distance (km) Brightness Sun altitude
Rises 21:45:11 0° 213° (SSW) 3,385 5.1 -16.3°
Reaches altitude 10° 21:47:38 10° 215° (SW) 2,454 4.4 -16.6°
Maximum altitude 21:53:15 70° 300° (WNW) 894 2.5 -17.1°
Drops below altitude 10° 21:58:55 10° 24° (NNE) 2,470 5.1 -17.6°
Sets 22:01:23 0° 27° (NNE) 3,409 5.8 -17.9°
